This demonstration page uses our WeatherBlox Daily Observations layout. Learn more.

39.29038, -76.61219

Hourly Observations for April 19, 2018

Temp ( °F °C ) Dew Point ( °F °C ) Humidity (%) Winds ( mph kmh ) Pressure ( in mb ) Visibility ( mi km ) Precip ( " mm )
12:54 am 00:54 undefined 53 11.7 41 5 64 64 undefined N/A 29.68 1005 N/A 0 0
1:54 am 01:54 undefined 52 11.1 39 3.9 61 61 undefined N/A 29.65 1004 N/A 0 0
2:54 am 02:54 undefined 51 10.6 39 3.9 64 64 undefined N/A 29.63 1004 N/A 0 0
3:54 am 03:54 undefined 52 11.1 39 3.9 61 61 undefined N/A 29.67 1005 N/A 0 0
4:54 am 04:54 undefined 53 11.7 36 2.2 52 52 undefined N/A 29.7 1006 N/A 0 0
5:54 am 05:54 undefined 52 11.1 37 2.8 57 57 undefined N/A 29.66 1004 N/A 0 0
6:54 am 06:54 undefined 52 11.1 38 3.3 59 59 undefined N/A 29.65 1004 N/A 0 0
7:54 am 07:54 undefined 52 11.1 37 2.8 57 57 undefined N/A 29.69 1005 N/A 0 0
8:54 am 08:54 undefined 53 11.7 39 3.9 59 59 undefined N/A 29.7 1006 N/A 0 0
9:54 am 09:54 undefined 53 11.7 40 4.4 61 61 undefined N/A 29.71 1006 N/A 0 0
10:54 am 10:54 undefined 61 16.1 43 6.1 52 52 undefined N/A 29.72 1006 N/A 0 0
11:54 am 11:54 undefined 57 13.9 37 2.8 47 47 undefined N/A 29.75 1007 N/A 0 0
12:54 pm 12:54 undefined 52 11.1 38 3.3 59 59 undefined N/A 29.78 1009 N/A 0 0
1:54 pm 13:54 undefined 54 12.2 32 0 43 43 undefined N/A 29.82 1010 N/A 0 0
2:54 pm 14:54 undefined 56 13.3 31 -0.6 39 39 undefined N/A 29.86 1011 N/A 0 0
3:54 pm 15:54 undefined 52 11.1 27 -2.8 38 38 undefined N/A 29.91 1013 N/A 0 0
4:54 pm 16:54 undefined 51 10.6 27 -2.8 39 39 undefined N/A 29.95 1014 N/A 0 0
5:54 pm 17:54 undefined 49 9.4 25 -3.9 39 39 undefined N/A 29.99 1016 N/A 0 0
6:54 pm 18:54 undefined 47 8.3 25 -3.9 42 42 undefined N/A 30.04 1017 N/A 0 0
7:54 pm 19:54 undefined 46 7.8 24 -4.4 42 42 undefined N/A 30.08 1019 N/A 0 0
8:54 pm 20:54 undefined 46 7.8 25 -3.9 44 44 undefined N/A 30.11 1020 N/A 0 0
9:54 pm 21:54 undefined 45 7.2 25 -3.9 46 46 undefined N/A 30.13 1020 N/A 0 0
10:54 pm 22:54 undefined 44 6.7 25 -3.9 47 47 undefined N/A 30.13 1020 N/A 0 0
11:54 pm 23:54 undefined 43 6.1 25 -3.9 49 49 undefined N/A 30.13 1020 N/A 0 0

Powered by AerisWeather